Retour au catalogue

KUIPER-00532

ActifCommunicationsVLEO
NORAD 69604·PAYLOAD·🇺🇸 United States

Lancé Jun 17, 2026 depuis Guiana Space Centre

Loading…

Prochains Passages (prochaines 24 heures)

TLE

FraisSource: CelesTrak SupGP

Époque: Sep 14, 2026, 22:17 UTC

1 69604C 26140N   26257.92856482 -.00736500  00000+0 -53333-1 0  2571
2 69604  51.8907 327.4544 0003436 205.0698 190.0949 15.04204660    13

Suivez KUIPER-00532 en temps réel avec AllMySat

Download on the App Store